THOR ABLESTAR DEB, 330

Orbit data source: Space-Track

THOR ABLESTAR DEB, 330 is space debris in LEO originally from a launch on Thu, 29 Jun 1961 UTC launched from the Air Force Eastern Test Range (AFETR). Debris objects in space refer to the collection of defunct objects orbiting the Earth. Examples of debris include non-operational satellites, rocket bodies, and fragments generated from explosions, collisions, or faulty payload assembly.

Loading next visibility...
Identifier
330, 1961-015DG
Orbit
LEO
Country
Flag of USUS
Related business
Manufacturer
Unknown
Mission
Spacecraft
Bus & Motor
Unknown
Mass
Unknown
Launch date (UTC)
1961-06-29 (65 years ago)
Launch vehicle
Unknown
Launch site
Air Force Eastern Test Range (AFETR)
Object type
Payload
Rocket body
Debris
Shape & HBR
Unknown shape, 0.1 m
Radar Cross Section
Medium (>0.1 m² and <1 m²)

Expand to show TLE details & history
Last TLE update: 16 hours ago

TLE from 16 hours ago
0 THOR ABLESTAR DEB
1 00330U 61015DG  26206.41102905  .00000649  00000-0  43306-3 0  9995
2 00330  66.9771 208.6968 0040915  91.0682 269.5095 14.06831360302089
Epoch: 2026-07-25T09:51Z
TLE epoch observation values (Epoch: 2026-07-25T09:51:52.909Z)
Latitude
-0°
Longitude
117.60265°
Altitude
872.716 km
Speed
7.416 km/s
True Right ascension
13h 54m 47s
True Declination
0° 00' 00"
Sunlit
Object was in daylight at epoch
Visualization orbit readout
Latitude
Unknown
Longitude
Unknown
Altitude
Unknown
Speed
Unknown
Apparent Right ascension
Unknown
Apparent Declination
Unknown
Sunlit
N/A
Visualization observer readout
Local Sidereal Time
15:19:54
Azimuth
Unknown
Elevation
Unknown
Doppler factor
Unknown
Orbital elements
Apogee altitude
898.246 km
Perigee altitude
838.946 km
Semi-major axis
7,246.733 km
Eccentricity
0.00409
Inclination
66.9771°
RAAN
208.6968°
Arg. of periapsis
91.0682°
True anomaly
269.04069°
Mean anomaly
269.5095°
Eccentric anomaly
269.27509°
Mean motion
3.51828 °/min
Orbital period
102.32 mins
BSTAR
0.00043306

Documentation

Showing up to 5 results
|